Location: La Fleuriais
(47.7953°N, 1.5986°W)
Time: 13:53:29
(UTC+00:00)

Daily predictions for brighter satellites

Satellite Brightness Start Highest point End
(mag) Time Altitude Azimuth Time Altitude Azimuth Time Altitude Azimuth
IGS 5A 4.3 20:22:15 10° S 20:26:17 51° W 20:30:22 10° NNW
Okean-O 4.5 20:23:38 10° SSW 20:27:32 30° W 20:31:28 10° NNW
Cosmos 1980 Rocket 2.7 20:24:01 10° S 20:29:12 39° ESE 20:34:27 10° NE
CARTOSAT-1 4.2 20:26:59 10° SE 20:31:01 40° ENE 20:35:04 10° N
Cosmos 1464 Rocket 4.1 20:28:16 10° S 20:34:19 59° E 20:40:22 10° NNE
ARGOS Delta rocket 4.2 20:30:54 10° NNE 20:36:25 69° E 20:41:48 10° S
Cosmos 2344 3.6 20:29:45 10° SSW 20:37:02 54° ESE 20:44:23 10° NE
ISS -3.3 20:34:04 10° WNW 20:37:24 58° NNE 20:40:43 10° E
IRS-1A Rocket 4.4 20:31:54 10° SSE 20:37:35 87° WSW 20:43:25 10° NNW
Cosmos 2369 3.8 20:33:20 10° S 20:38:48 53° ESE 20:44:19 10° NE
Cosmos 1354 Rocket 4.5 20:34:54 10° S 20:39:48 41° ESE 20:44:46 10° NE
Cosmos 773 Rocket 4.5 20:35:10 10° NNW 20:40:16 49° ENE 20:45:16 10° SE
Spot 2 Rocket 4.4 20:36:06 10° SE 20:40:38 35° ENE 20:45:11 10° N
Cosmos 1536 2.9 20:36:55 10° N 20:40:57 88° W 20:44:59 10° S
SPOT 3 Rocket 3.8 20:36:44 10° SE 20:41:43 54° ENE 20:46:45 10° N
ATLAS 2AS CENTAUR R/B 3.3 20:34:37 10° S 20:41:48 42° ESE 20:48:48 10° NE
Okean 1 4.1 20:40:56 10° SSE 20:44:34 34° E 20:48:13 10° NNE
Cosmos 1486 Rocket 4.1 20:39:53 10° SSW 20:45:12 89° ESE 20:50:31 10° NNE
H-2A R/B 2.6 20:42:13 10° N 20:46:16 60° WNW 20:50:18 10° SSW
NOSS 3-4 (A) 3.6 20:40:38 10° SW 20:46:22 78° NW 20:52:37 10° NE
NOSS 3-4 (C) 3.6 20:40:40 10° SW 20:46:25 79° NW 20:52:42 10° NE
Nadezhda 4 Rocket 4.1 20:41:22 10° N 20:47:33 64° ENE 20:53:39 10° SSE
Cosmos 1697 Rocket 2.9 20:42:15 10° SSW 20:47:56 82° WNW 20:53:39 10° NNE
RESURS DK-1 3.3 20:44:29 10° SSE 20:48:02 28° ESE 20:51:34 10° NE
SL-4 R/B 3.2 20:44:02 10° WNW 20:48:16 37° SW 20:52:09 10° SSE
Cosmos 2360 4.4 20:48:01 10° SSW 20:53:43 79° WNW 20:59:27 10° NNE
ATLAS CENTAUR R/B 4.2 20:52:12 10° NNW 20:55:10 16° NNE 20:58:04 10° ENE
Cosmos 2297 Rocket 4.0 20:51:08 10° NW 20:55:47 27° WSW 21:00:24 10° SSW
Cosmos 44 Rocket 3.9 20:52:40 10° NNW 20:57:13 44° NE 21:01:28 11° ESE
ARIANE 5 R/B 4.1 20:53:39 10° ESE 20:57:14 25° ENE 21:00:54 10° N
MetOp-B 4.2 20:53:11 10° SSE 20:58:34 89° W 21:03:57 10° NNW
Cosmos 1184 Rocket 2.8 21:00:48 10° SSW 21:03:48 69° WNW 21:06:49 10° N
ATLAS 3B R/B 3.5 20:58:58 10° NW 21:06:03 50° NE 21:13:22 10° ESE
Meteor 2-9 Rocket 4.3 21:01:03 10° N 21:06:52 74° ENE 21:12:06 12° SSE
Cosmos 1975 3.6 21:06:58 10° N 21:10:47 37° ENE 21:13:33 16° SE
Timation 2 Rocket 4.3 21:04:18 10° NNW 21:10:53 77° WSW 21:17:06 13° SSE
Cosmos 2026 Rocket 4.4 21:05:58 10° N 21:11:57 50° ENE 21:17:00 15° SSE
Cosmos 389 Rocket 3.6 21:08:52 10° NNW 21:12:11 41° W 21:15:30 10° SSW
Cosmos 1503 Rocket 4.1 21:09:13 10° SSW 21:14:29 86° WNW 21:19:52 10° NNE
ERS-1 Rocket 3.2 21:12:32 15° SSE 21:16:40 59° ENE 21:21:38 10° N
CZ-4B R/B 3.3 21:14:01 10° N 21:16:53 30° WNW 21:19:41 10° SW
SL-16 R/B 3.2 21:13:28 14° SSE 21:17:08 26° ESE 21:21:47 10° NE
BREEZE-M (TANK) 4.3 21:12:57 10° W 21:17:13 84° NNW 21:35:48 10° E
Cosmos 1933 Rocket 4.4 21:13:52 10° NNW 21:18:12 50° W 21:22:30 10° SSW
Helios 1A Rocket 2.8 21:19:01 15° SSE 21:22:15 89° E 21:26:17 10° NNW
CZ-2C R/B 4.1 21:19:22 10° NNE 21:24:00 48° E 21:27:47 15° S
Cosmos 1733 Rocket 4.0 21:20:56 10° N 21:25:02 35° ENE 21:27:44 18° SE
OE (NEXTSAT) 4.3 21:26:06 10° WSW 21:29:21 54° S 21:32:08 13° E
Cosmos 1340 4.4 21:26:44 10° SW 21:30:07 32° WNW 21:33:32 10° N
SJ 16-02 1.4 21:27:25 10° SSW 21:31:48 84° WNW 21:36:12 10° NNE
Meteor 1-18 Rocket 4.2 21:26:49 10° S 21:32:24 67° E 21:37:59 10° NNE
Cosmos 2292 Rocket 2.5 21:33:47 10° N 21:36:49 79° E 21:38:15 27° SSE
Cosmos 2034 Rocket 4.3 21:31:07 10° SSW 21:37:23 71° W 21:43:46 10° N
Cosmos 2278 3.6 21:31:48 10° SSW 21:37:28 81° ESE 21:43:10 10° NNE
ASTRO F (AKARI) 4.1 21:37:45 27° SSE 21:39:18 83° ENE 21:42:29 10° NNW
Cosmos 1862 Rocket 4.4 21:37:31 21° SE 21:39:44 35° E 21:43:49 10° NNE
BREEZE M DEB (TANK) 4.0 21:37:20 10° WNW 21:41:33 62° SSW 21:55:47 12° SE
Cosmos 2360 Rocket 3.6 21:40:43 17° ESE 21:42:22 20° E 21:46:19 10° NE
Meteor 2-21 Rocket 4.5 21:36:28 10° N 21:42:35 83° W 21:47:35 16° S
Cosmos 1726 4.5 21:42:07 10° NE 21:43:40 12° ENE 21:45:09 10° E
Cosmos 2263 Rocket 2.4 21:39:43 10° NNW 21:45:15 65° WSW 21:49:11 19° S
NOSS 2-1 (C) 3.1 21:46:44 24° S 21:48:17 43° SE 21:51:22 10° NE
SPOT 5 3.3 21:45:43 16° S 21:49:53 66° WSW 21:54:59 10° NNW
Cosmos 482 Debris 4.5 21:47:33 10° WNW 21:50:30 48° SSW 21:52:24 27° SSE
Terra 1.8 21:47:56 21° SSE 21:51:06 88° WSW 21:55:53 10° NNW
Cosmos 1441 Rocket 4.1 21:51:03 27° SE 21:52:06 31° E 21:55:25 10° NNE
Resurs 01 Rocket 4.1 21:49:37 10° SW 21:52:23 16° W 21:55:11 10° NW
Cosmos 1346 Rocket 2.8 21:50:23 24° S 21:52:41 65° E 21:56:41 10° NNE
Cosmos 2279 Rocket 4.2 21:53:29 21° SSE 21:57:36 56° E 22:03:40 10° NNE
NOSS 2-1 (D) 2.7 21:56:58 23° SSW 21:58:43 57° SE 22:01:54 10° NE
USA 215 4.1 21:56:10 10° ENE 22:01:34 27° SE 22:03:42 23° SSE
Iridium 2 4.0 21:59:24 10° N 22:03:05 50° E 22:04:23 33° SE
Cosmos 1818 4.5 22:02:54 10° NNW 22:08:07 42° NE 22:12:08 16° ESE
Cosmos 2228 Rocket 4.3 22:07:00 10° SW 22:11:20 41° WNW 22:15:40 10° N
Cosmos 1378 4.1 22:08:55 14° SW 22:11:46 43° WNW 22:15:17 10° N
Iridium 4 Rocket 4.4 22:07:46 10° NNE 22:11:50 30° E 22:13:44 23° ESE
Cosmos 1980 Rocket 3.6 22:07:58 10° WSW 22:13:13 39° NW 22:18:32 10° NNE
SL-24 R/B - RUBIN 2 3.9 22:09:16 10° NW 22:13:33 53° WSW 22:15:31 30° S
Cosmos 1898 Rocket 4.3 22:11:50 27° SE 22:13:37 33° ESE 22:18:21 10° NE
ISS -3.0 22:10:58 10° WNW 22:14:05 36° SW 22:14:21 35° SSW
Okean 1-7 4.0 22:17:25 28° ESE 22:18:34 32° E 22:22:29 10° NNE
Cosmos 2322 Rocket 2.2 22:18:02 24° S 22:21:22 60° ESE 22:26:54 10° NNE
Cosmos 2180 Rocket 4.5 22:21:19 26° S 22:24:51 68° E 22:30:58 10° NNE
Cosmos 1844 Rocket 2.9 22:19:22 10° NNW 22:24:57 62° ENE 22:27:57 27° SE
RESURS DK-1 4.1 22:22:10 10° WSW 22:25:56 33° NW 22:29:42 10° NNE
Cosmos 2333 Rocket 3.3 22:25:18 23° ESE 22:26:29 25° ESE 22:31:00 10° NE
Cosmos 1805 3.2 22:23:23 10° N 22:27:17 76° ENE 22:28:28 43° SSE
Meteor 2-4 Rocket 4.3 22:22:23 11° SSW 22:27:47 57° WNW 22:33:21 10° N
BREEZE-M DEB (TANK) 2.5 22:28:42 10° W 22:31:11 46° SSW 22:31:52 40° SSE
ATLAS 2AS CENTAUR R/B 3.5 22:24:56 10° WSW 22:32:38 61° NW 22:40:04 10° NE
ARIANE 5 R/B 3.6 22:31:11 23° SSW 22:33:29 41° W 22:37:45 10° NNW
ATLAS CENTAUR R/B 2.5 22:30:24 10° NNW 22:35:09 47° NE 22:37:50 23° ESE
USA 267 3.9 22:31:56 10° E 22:38:16 54° NNE 22:44:37 10° NW
Cosmos 44 Rocket 4.4 22:34:28 10° NW 22:38:34 30° WSW 22:40:10 24° SSW
Cosmos 1733 3.2 22:36:38 10° NNW 22:40:25 75° W 22:41:23 47° S
Cosmos 1766 3.5 22:38:33 10° N 22:42:27 59° ENE 22:43:23 45° SE
Cosmos 2219 Rocket 3.2 22:44:47 25° ESE 22:45:48 27° ESE 22:50:23 10° NE
Cosmos 1844 3.8 22:42:51 10° NNW 22:48:42 79° ENE 22:51:27 33° SE
Cosmos 1703 Rocket 3.6 22:48:16 43° SSE 22:49:30 62° E 22:53:53 10° NNE
Meteor 1-4 Rocket 3.1 22:49:36 10° NNW 22:52:57 44° W 22:53:35 39° SW
ATLAS 3B R/B 3.3 22:49:49 10° NW 22:56:55 52° WSW 23:00:39 29° S
NOSS 2-1 (E) 4.2 22:55:17 12° WSW 22:58:05 38° NW 23:01:14 10° NNE
Cosmos 1707 4.2 23:00:36 23° E 23:00:48 23° E 23:03:55 10° NE
SL-16 R/B 2.8 22:55:19 10° SW 23:00:53 56° WNW 23:06:29 10° NNE
Cosmos 1655 Rocket 3.9 22:54:57 10° N 23:01:13 86° W 23:04:10 34° S
Cosmos 2237 4.3 22:58:24 20° SW 23:02:29 76° WNW 23:08:15 10° NNE
Cosmos 1782 Rocket 3.6 22:59:21 10° N 23:03:43 69° E 23:04:50 47° SE
Meteor 2-10 4.2 23:01:39 10° NNW 23:06:51 61° W 23:08:49 36° SSW
ERS-2 3.1 23:03:44 10° NNE 23:06:52 32° E 23:06:52 32° E
CZ-4C R/B 3.4 23:00:11 10° NW 23:07:05 59° NE 23:14:17 14° ESE
NOSS 3-1 (C) 4.2 23:00:34 10° NW 23:07:53 76° NE 23:14:02 21° SE
SJ 16-02 4.3 23:09:13 10° WNW 23:11:06 12° NW 23:12:59 10° NNW
Gblst 52 Del rocket 4.2 23:06:57 10° WSW 23:13:28 77° SSE 23:19:15 10° ENE
Cosmos 1908 Rocket 4.0 23:10:23 10° NNW 23:14:35 50° W 23:15:46 38° SW
Cosmos 2237 Rocket 4.2 23:14:56 12° ESE 23:15:56 12° E 23:18:05 10° ENE
Meteor 1-15 Rocket 4.3 23:12:30 10° NNW 23:18:08 70° W 23:20:26 37° S
Cosmos 1470 2.9 23:14:39 10° N 23:18:30 59° ENE 23:19:01 53° ESE
Cosmos 1726 2.3 23:15:26 10° NNW 23:19:03 57° W 23:19:26 53° SW
COSMOS 2428 3.5 23:17:53 31° SE 23:19:05 35° ESE 23:24:10 10° NE
Cosmos 1300 Rocket 3.9 23:15:33 10° N 23:19:50 55° ENE 23:20:51 43° SE
Cosmos 2242 Rocket 3.6 23:21:24 46° SSW 23:22:44 80° W 23:27:19 10° N
ALOS 2 2.6 23:22:00 50° SSE 23:23:05 76° ENE 23:27:30 10° N
Cosmos 1937 Rocket 3.4 23:22:46 37° SSW 23:24:55 87° WNW 23:30:14 10° NNE
Cosmos 1242 Rocket 3.6 23:22:23 10° N 23:25:41 33° ENE 23:26:07 32° E
Cosmos 2360 Rocket 2.3 23:22:24 25° SW 23:25:44 72° WNW 23:31:26 10° NNE
Okean 2 Rocket 4.2 23:22:30 10° N 23:26:42 36° ENE 23:28:05 29° ESE
Terra 4.3 23:28:01 10° WSW 23:29:34 11° W 23:31:07 10° WNW
Cosmos 2333 4.1 23:29:02 38° SSW 23:31:15 80° ESE 23:36:55 10° NNE
Cosmos 2266 Rocket 4.5 23:27:06 10° NNW 23:33:06 50° W 23:35:54 29° SSW
Cosmos 1867 4.0 23:33:44 39° SE 23:34:41 43° ESE 23:39:50 10° NE
Cosmos 1626 3.4 23:37:35 28° E 23:37:35 28° E 23:40:45 10° NNE
Cosmos 1842 3.4 23:38:57 54° SW 23:39:33 63° W 23:43:25 10° N
Cosmos 1680 Rocket 4.4 23:37:27 10° NW 23:42:17 37° WSW 23:43:44 31° SW
Meteor 2-17 Rocket 4.4 23:37:06 10° N 23:43:17 83° W 23:45:46 39° S
Cosmos 1953 4.1 23:40:18 10° NNE 23:43:29 22° ENE 23:44:46 19° E
Cosmos 2278 Rocket 3.2 23:39:37 10° NNW 23:45:01 42° NE 23:48:51 18° ESE
USA 215 3.2 23:38:36 10° NE 23:45:12 83° SE 23:50:59 14° SW
Cosmos 1674 3.0 23:50:45 48° E 23:50:51 48° E 23:54:30 10° NNE
Cosmos 1818 4.1 23:46:36 10° NW 23:51:42 41° WSW 23:52:45 37° SW
Sich 1 Rocket 3.5 23:48:40 10° N 23:53:06 81° E 23:54:00 56° SSE
